Location: T�chigga el Be�da
(16.4766°N, 9.3887°W)
Time: 13:45:13
(UTC+00:00)

GPS 2-12 Rocket1 - Pass Details

Date: 27 February 2020
Orbit: 586 x 652 km, 20.0° (Epoch: 04 April)

Event Time Altitude Azimuth Distance (km) Brightness Sun altitude
Rises 20:28:31 0° 266° (W) 2,802 7.8 -25.8°
Reaches altitude 10° 20:30:50 10° 269° (W) 1,909 6.6 -26.4°
Enters shadow 20:34:23 52° 295° (WNW) 738 3.6 -27.2°
